SCP
0 0 0 0 0 0 0 0 0 0 0 0 0 1 1 1 2 2 2 2 2 1 1 1 0 0 1 1 1 1 1 1 1 1 0 0 0 0 0 0 0 1 1 1
0 0 0 0 0 0 0 0 0 0 0 0 0 0 1 1 1 2 2 2 1 1 1 0 -0 0 0 0 1 1 1 1 1 1 1 1 1 0 0 0 0 0 0 0
-0 0 0 0 0 0 0 0 0 0 -0 0 0 0 0 1 1 2 2 2 1 1 0 -0 -0 -0 -0 0 0 0 0 0 0 1 1 1 0 0 0 0 0 0 0 0
0 0 0 0 0 0 0 0 0 0 0 0 0 0 0 1 1 2 2 1 1 0 -0 -0 -0 -0 -0 -0 0 0 0 0 0 1 1 1 0 0 0 0 0 0 0 0
0 0 0 0 0 0 0 0 0 0 0 0 0 0 0 0 1 1 1 1 0 0 -0 -0 -0 -0 -0 -0 0 0 0 0 0 0 0 0 0 0 0 0 0 0 0 0
0 0 0 0 0 0 0 0 0 0 0 0 0 0 0 0 0 0 0 0 0 -0 -0 -0 -0 -0 -0 0 0 0 0 0 0 0 0 0 0 0 0 0 0 0 0 0
0 0 0 0 0 0 0 0 0 0 0 0 0 0 0 0 0 0 0 -0 -0 -0 -0 -0 -0 -0 0 0 0 0 0 0 0 0 0 0 0 0 0 0 0 0 0 0
0 0 0 0 0 0 0 0 0 0 0 0 0 0 0 0 0 0 -0 -0 -0 -0 -0 -0 -0 -0 0 0 0 0 0 0 0 0 0 0 0 0 0 0 0 0 0 0
0 0 0 0 0 0 0 0 0 0 0 0 0 0 0 0 -0 -0 -0 -0 -0 0 0 -0 -0 -0 -0 -0 -0 0 0 0 0 0 0 0 0 0 0 0 0 0 0 0
0 0 0 0 0 0 0 0 0 0 0 0 0 0 0 0 -0 -0 -0 -0 -0 0 0 -0 -0 -0 -0 0 0 0 0 0 0 0 0 0 0 0 0 0 0 0 0 0
0 0 0 0 0 0 0 0 0 0 0 0 0 0 0 0 0 0 0 0 0 0 0 0 0 0 0 0 0 0 0 0 0 0 0 0 0 0 0 0 0 0 0 0
0 0 0 0 0 0 0 0 0 0 0 0 0 0 0 0 0 0 0 0 0 0 0 0 0 0 0 0 0 0 0 0 0 0 0 0 0 0 0 0 0 0 0 0
0 0 0 0 0 0 0 0 0 0 0 0 0 0 0 0 0 0 0 0 0 0 0 0 0 0 0 0 0 0 0 0 0 0 0 0 0 0 0 0 0 0 0 0
0 0 0 0 0 0 0 0 0 0 0 0 0 0 0 0 0 0 0 0 0 0 0 0 0 0 0 0 0 0 0 0 0 0 0 0 0 0 0 0 0 0 0 0
0 0 0 0 0 0 0 0 0 0 0 0 0 0 0 0 0 0 0 0 0 0 0 0 0 0 0 -0 0 0 0 0 0 0 0 0 0 0 0 0 0 0 0 0
0 0 0 0 0 0 0 0 0 0 0 0 0 0 0 0 0 0 0 0 0 0 -0 -0 -0 -0 0 -0 0 0 0 0 0 0 0 0 0 0 0 0 0 0 0 0
0 0 0 0 0 0 0 0 0 0 0 0 0 0 0 0 0 0 0 0 0 -0 -0 -0 -0 -0 -0 -0 0 0 0 0 0 0 0 0 0 0 0 0 0 0 0 0
0 0 0 0 0 0 0 0 0 0 0 0 0 0 0 0 0 0 0 -0 0 0 -0 -0 -0 -0 0 0 0 0 0 0 0 0 0 0 0 0 0 0 0 0 0 0
0 0 0 0 0 0 0 0 0 0 0 0 0 0 0 0 0 -0 -0 -0 -0 0 0 -0 -0 0 0 0 0 0 0 0 0 0 0 0 0 0 0 0 0 0 0 0
0 0 0 0 0 0 0 0 0 0 0 0 0 0 0 0 0 0 -0 -0 0 0 0 0 0 0 0 0 0 0 0 0 0 0 0 0 0 0 0 0 0 0 0 0
0 0 0 0 0 0 0 0 0 0 0 0 0 0 0 0 0 0 0 0 0 0 0 0 0 0 0 0 0 0 0 0 0 0 0 0 0 0 0 0 -0 0 0 0
0 0 0 0 0 0 0 0 0 0 0 0 0 0 0 0 0 0 0 0 0 0 0 0 0 0 0 0 0 0 0 0 0 0 0 0 0 0 0 0 -0 0 0 -0
0 0 0 0 0 0 0 0 0 0 0 0 0 0 0 0 0 0 0 0 0 0 0 0 0 0 0 0 0 0 0 0 0 0 0 0 0 0 0 0 0 0 0 -0
0 0 0 0 0 0 0 0 0 0 0 0 0 0 0 0 0 0 0 0 0 0 0 0 0 0 0 0 0 0 0 0 0 0 0 0 0 0 0 0 0 0 0 0
0 0 0 0 0 0 0 0 0 0 0 0 0 0 0 0 0 0 0 0 0 0 0 0 0 0 0 0 0 0 0 0 0 0 0 0 0 0 0 0 0 0 0 0
0 0 0 0 0 0 0 0 0 0 0 0 0 0 0 0 0 0 0 0 0 0 0 0 0 0 0 0 0 0 0 0 0 0 0 0 0 0 0 0 0 0 0 0
Wind_Speed
2 2 3 4 5 4 2 2 2 4 5 5 6 5 2 2 6 8 7 5 5 3 0 0 0 1 2 3 3 4 4 5 5 3 2 2 3 1 1 2 4 4 4 4
5 3 3 2 2 1 1 0 3 4 7 4 2 2 3 2 2 6 8 7 5 3 4 4 3 3 3 2 2 2 3 3 2 2 2 2 1 1 2 2 3 3 4 5
0 5 5 3 2 2 0 1 2 3 6 4 2 4 4 2 1 3 5 6 5 7 8 6 6 5 5 5 5 4 5 4 4 3 2 1 1 1 2 2 3 3 4 5
2 5 3 2 1 2 2 3 2 3 2 3 1 4 6 3 4 6 7 6 7 8 8 7 8 7 7 7 6 6 5 5 4 3 3 3 2 2 2 1 3 5 6 7
5 3 4 3 3 1 3 1 2 2 0 3 2 1 5 1 5 8 8 9 11 12 10 9 9 7 5 6 6 5 4 5 4 3 3 3 2 2 1 1 4 5 5 6
4 3 1 2 2 2 2 3 5 4 3 2 2 0 6 5 8 6 6 9 14 13 8 9 8 5 4 5 6 5 5 6 5 5 5 5 5 3 2 3 4 4 4 5
7 5 3 1 2 3 5 5 5 7 5 3 2 1 8 8 8 8 12 14 15 8 7 8 9 8 5 6 7 5 5 7 6 4 4 5 5 4 2 3 4 4 5 6
2 6 3 1 1 2 1 5 4 2 3 5 2 4 6 5 5 5 7 7 4 4 4 7 8 7 7 8 8 6 6 8 5 3 4 5 5 3 2 3 4 4 4 5
4 5 5 2 2 1 1 2 3 4 0 3 4 5 8 5 4 4 3 5 9 9 8 9 10 8 8 8 7 6 7 6 4 4 4 4 4 3 3 4 4 3 3 5
2 3 4 4 2 2 2 3 2 0 1 3 4 3 5 14 14 9 10 12 12 12 12 12 11 9 7 7 7 6 5 3 2 4 5 5 5 5 4 4 4 3 3 4
3 1 5 4 2 1 1 2 3 1 1 3 4 4 3 10 11 6 11 10 9 10 11 13 15 16 13 11 10 9 7 6 4 4 5 6 5 5 4 5 5 4 4 4
2 3 3 5 4 1 2 3 4 2 3 2 3 4 4 5 9 11 9 9 9 10 11 12 13 13 14 14 12 12 10 8 6 5 5 6 6 6 6 6 6 4 4 5
3 2 3 6 4 2 1 1 3 4 2 4 4 3 4 4 7 9 9 10 12 13 14 13 12 11 10 10 9 10 10 10 9 7 6 6 7 7 7 7 6 5 4 4
5 4 5 6 6 2 4 4 1 3 3 5 6 4 5 9 10 10 10 11 12 13 13 14 13 11 10 9 8 9 9 8 8 8 8 8 9 9 9 7 6 6 4 4
4 2 4 6 5 2 4 6 3 3 4 3 2 7 8 13 13 11 12 15 18 17 16 16 16 16 15 13 11 9 8 9 8 8 8 9 10 8 8 8 7 6 5 4
3 1 1 3 3 2 5 4 1 3 6 3 7 9 10 11 15 15 14 15 17 17 15 15 16 16 15 12 12 11 9 9 8 8 8 8 7 8 9 9 8 7 6 5
0 3 2 2 3 4 5 8 5 7 9 5 6 9 16 17 18 16 15 15 16 16 17 15 14 14 13 11 12 12 13 11 10 9 8 7 7 6 6 7 7 8 8 6
3 3 2 1 3 1 3 4 10 11 9 9 8 9 9 12 11 12 14 13 14 16 18 15 14 14 13 13 13 12 11 9 10 10 8 6 6 7 5 4 7 8 7 8
4 3 2 1 1 1 4 8 7 4 4 5 6 10 11 13 11 12 15 16 18 17 14 14 14 14 14 13 12 11 10 9 10 11 9 5 5 6 5 5 6 8 6 7
5 4 3 3 2 2 5 13 11 4 0 4 8 14 16 14 13 14 9 10 14 15 14 14 13 13 13 14 10 9 11 9 9 10 10 7 6 5 5 5 5 7 7 8
7 6 4 2 2 3 8 13 10 5 9 14 14 16 18 14 18 20 17 16 16 17 18 17 15 14 15 13 9 12 13 11 12 9 8 9 7 6 5 5 5 5 7 7
4 3 4 4 4 4 9 9 7 7 13 16 15 16 17 17 18 18 18 18 18 18 19 18 16 17 16 12 11 14 14 15 12 9 9 11 9 6 5 5 4 5 7 10
4 1 2 2 0 4 4 2 7 9 13 16 16 15 17 18 19 19 19 19 19 19 18 18 18 20 17 13 12 14 16 13 11 10 11 11 10 6 6 6 5 4 7 8
3 3 3 2 2 5 7 10 11 12 13 14 14 14 15 17 19 19 18 18 18 17 18 19 20 21 19 17 15 16 15 11 10 11 12 10 8 8 6 6 6 5 6 6
1 3 2 2 5 8 8 8 13 12 11 14 15 14 15 17 20 20 19 20 19 19 20 20 18 20 22 20 17 15 12 9 9 11 10 8 6 7 7 7 6 5 4 4
2 0 1 4 7 6 12 13 10 10 13 14 15 17 17 18 19 21 20 20 20 21 21 20 21 24 23 22 19 14 10 9 11 10 9 7 5 5 6 6 5 7 8 10
Wind_Direction
348 6 275 245 207 211 196 231 258 287 315 39 44 60 8 59 95 105 112 142 162 127 171 245 129 150 116 109 135 161 188 181 173 181 199 232 250 259 240 246 262 284 305 302
6 308 259 236 194 162 183 326 322 313 341 36 65 49 305 262 175 155 159 180 183 169 210 225 233 225 204 203 198 203 227 209 206 194 204 215 226 254 262 288 305 335 328 311
196 289 323 48 79 68 263 187 274 303 337 6 32 329 305 287 228 139 177 196 191 203 211 217 223 226 227 227 229 234 234 230 230 217 215 250 311 329 331 317 319 326 317 307
299 297 339 8 356 100 298 231 247 292 340 303 1 282 285 276 275 203 198 207 218 232 229 221 221 221 219 222 222 229 227 229 231 214 219 219 210 223 231 279 313 316 327 325
288 305 335 332 303 283 270 59 38 359 354 291 333 269 275 309 265 230 212 210 221 227 221 222 228 229 226 228 228 232 244 260 268 261 237 219 226 240 276 324 316 313 315 312
269 295 280 274 304 348 27 59 38 34 48 304 293 252 275 207 216 222 223 223 225 229 224 235 242 242 235 236 238 227 232 255 253 242 226 207 218 222 252 316 313 309 307 309
329 317 296 248 329 341 49 46 7 355 358 276 277 237 257 242 226 208 212 222 230 232 239 248 254 255 254 257 250 233 222 252 250 236 209 194 188 181 221 291 294 301 311 321
319 308 297 299 252 263 83 125 154 226 266 295 283 239 258 253 263 239 229 237 254 273 290 285 279 284 274 264 256 239 226 242 246 227 198 171 164 174 205 254 260 271 287 299
196 260 300 308 307 119 183 160 150 136 213 292 281 294 305 328 293 266 294 4 17 6 356 340 326 314 295 280 271 240 230 235 234 225 202 180 189 200 224 251 251 258 280 296
207 287 294 306 359 34 114 131 113 82 186 272 284 279 281 326 315 339 34 44 38 32 27 15 5 351 334 340 339 334 320 294 265 220 208 204 205 215 232 256 271 278 284 295
148 185 293 323 346 302 7 43 73 126 155 208 258 275 343 316 317 29 63 54 39 36 27 22 19 18 18 25 20 3 351 344 310 262 229 219 212 218 232 248 262 270 284 297
137 129 272 284 280 273 175 137 124 118 271 195 213 265 31 23 52 68 59 37 23 22 19 18 13 13 17 17 12 6 357 340 310 281 254 242 226 218 228 245 261 270 281 302
159 114 353 342 323 333 354 203 134 125 155 219 211 217 75 34 43 34 41 27 15 11 12 10 6 2 359 356 354 355 353 341 331 313 279 253 240 230 230 234 255 269 280 298
106 145 175 204 229 239 288 285 192 145 193 235 224 138 35 14 20 19 24 20 12 6 2 358 355 351 343 336 332 339 341 332 329 323 298 268 248 234 230 228 239 255 263 283
98 194 209 236 237 227 263 280 299 181 223 218 114 92 13 4 6 360 2 4 360 353 349 345 340 336 334 328 321 321 331 321 325 330 321 295 277 252 232 223 222 233 236 248
58 217 186 275 273 244 272 292 132 53 24 55 87 66 13 2 360 352 350 349 346 335 333 328 325 318 307 298 300 309 308 304 318 327 321 315 301 274 248 227 211 213 215 219
45 133 121 276 338 335 341 349 28 72 48 33 44 21 357 348 349 341 333 334 325 316 307 299 293 289 289 293 300 305 300 313 315 303 301 310 317 315 287 251 217 212 204 201
103 91 96 316 5 297 147 72 87 93 67 56 45 12 332 285 265 257 250 251 262 258 263 272 278 277 278 286 290 292 295 300 297 294 294 308 320 323 320 258 236 229 211 202
99 122 75 29 329 130 80 19 11 10 57 50 329 295 280 274 264 258 246 241 248 253 260 268 270 273 277 281 288 289 278 282 286 289 291 300 315 318 320 285 246 233 207 210
49 61 67 39 334 4 349 329 322 320 217 307 286 292 299 306 295 294 282 266 268 271 274 271 273 278 274 269 266 270 267 273 274 279 288 290 288 289 296 293 261 218 207 212
8 11 32 11 281 72 331 330 348 33 306 310 295 284 284 280 278 290 292 285 277 274 273 274 275 271 265 261 258 267 268 262 259 262 278 276 268 262 262 264 257 232 218 219
50 346 6 359 7 345 343 14 47 274 275 281 287 289 290 287 289 290 287 285 285 281 279 276 272 267 266 257 255 265 267 265 265 268 278 275 263 256 253 254 269 258 229 219
54 7 82 69 341 273 293 259 246 261 279 288 292 298 300 298 296 295 293 293 290 285 278 273 270 270 266 254 245 252 258 262 266 268 274 278 277 271 256 243 241 263 250 220
14 25 89 174 241 267 263 256 269 292 302 309 311 308 305 299 296 296 295 293 292 290 284 285 284 279 271 257 247 244 248 250 256 258 263 272 271 272 271 258 236 223 239 212
324 11 8 290 285 297 280 288 308 313 312 313 309 302 297 295 293 293 293 294 292 291 293 293 287 280 270 266 255 240 241 246 250 252 256 259 257 267 271 265 254 229 201 214
358 10 119 273 276 282 295 302 303 311 310 301 300 300 301 300 298 296 296 296 295 295 294 291 291 286 279 276 260 243 245 257 260 259 261 255 248 254 259 262 268 236 213 220